Location: Chippewa Lake
(41.0698°N, 81.9010°W)
Time: 00:14:57
(UTC+00:00)

SL-08 R/B - Pass Details

Date: 09 May 2021
Orbit: 674 x 738 km, 98.5° (Epoch: 24 June)

Event Time Altitude Azimuth Distance (km) Brightness Sun altitude
Rises 08:51:34 0° 169° (S) 3,090 6.4 -14.3°
Reaches altitude 10° 08:53:50 10° 171° (S) 2,165 5.6 -14.0°
Maximum altitude 08:58:34 76° 257° (WSW) 720 3.2 -13.3°
Drops below altitude 10° 09:03:16 10° 343° (NNW) 2,143 6.1 -12.6°
Sets 09:05:30 0° 346° (NNW) 3,055 6.9 -12.2°
